User: anonymous   Login
Location: Maiden
(35.5760°N, 81.2120°W)
Time: 09:24:17
(UTC-04:00)
Language:

Cosmos 2151 - Orbit

View from above orbital plane
View from above orbital plane
View from above satellite
View from above satellite

Ground track
Ground track

The orbit data is extracted from the following two-line orbital elements,

1 21422U 91042A   16182.58012285  .00000159  00000-0  13215-4 0  9997
2 21422  82.4998 220.9912 0015137  34.2750 325.9443 14.91648674356088
Epoch (UTC): 30 June 2016 13:55:22
Eccentricity: 0.0015137
inclination: 82.4998°
perigee height: 582 km
apogee height: 603 km
right ascension of ascending node: 220.9912°
argument of perigee: 34.2750°
revolutions per day: 14.91648674
mean anomaly at epoch: 325.9443°
orbit number at epoch: 35608

The dashed part of the orbit path shows where the satellite is in the earth's shadow,  

DLR